Regional Weather Roundup
Issued by NWS

Home | Current Version | Previous Version | Text Only | Print | Product List | Glossary On
Versions: 1 2 3 4 5 6 7 8 9 10 11 12 13 14 15 16 17 18 19 20 21 22 23 24 25 26 27 28 29 30 31 32 33 34 35 36 37 38 39 40 41 42 43 44 45 46 47 48 49 50
000
ASUS44 KEWX 050203
RWRTX
SOUTH TEXAS REGIONAL WEATHER ROUNDUP
NATIONAL WEATHER SERVICE AUSTIN/SAN ANTONIO TX
900 PM CDT FRI SEP 04 2015

NOTE: "FAIR" INDICATED FEW OR NO CLOUDS BELOW 12,000 FEET WITH NO
SIGNIFICANT WEATHER AND/OR OBSTRUCTIONS TO VISIBILITY.

* - THESE STATIONS ARE NOT NWS OR FAA STATIONS...AND ARE NOT SUBJECT
    TO NWS AND FAA QUALITY CONTROL.

TXZ171-172-183>190-050300-
TEXAS HILL COUNTRY AND EDWARDS PLATEAU

CITY           SKY/WX    TMP DP  RH WIND       PRES   REMARKS
JUNCTION       CLEAR     87  62  43 S7        29.91R
*LLANO         CLEAR     90  64  43 SE7       29.92R HX  91
BURNET         CLEAR     86  69  56 SE9       29.95R HX  90
*HORSESHOE BAY CLEAR     86  69  56 SE10      29.91R HX  91
*KERRVILLE     CLEAR     83  70  64 SE10      29.94R
*FREDERICKSBRG CLEAR     84  61  45 SE3       29.93R
*ROCKSPRINGS   CLEAR     82  63  51 SE5       29.97R
*BOERNE STAGE  CLEAR     81  68  65 SE8       29.96R
*CASTROVILLE   CLEAR     86  67  53 SE15      29.92R
HONDO          CLEAR     86  70  58 SE16      29.91R HX  90
*UVALDE        CLEAR     88  70  56 SE10      29.88R HX  92
DEL RIO        CLEAR     92  62  36 E9        29.83R HX  92
LAUGHLIN AFB   CLEAR     90  63  40 SE9       29.84R HX  91
CARRIZO SPRGS  CLEAR     88  70  55 E15G22    29.84R HX  92
*EAGLE PASS    CLEAR     90  63  40 E6        29.84R HX  90
$$

TXZ173-191>194-202-209-217>225-228-050300-
CENTRAL AND SOUTH CENTRAL TEXAS

CITY           SKY/WX    TMP DP  RH WIND       PRES   REMARKS
GEORGETOWN     CLOUDY    86  70  58 SE8       29.93R HX  90
AUSTIN/BERGSTM PTCLDY    85  70  60 SE13      29.91R
AUSTIN/MABRY   PTCLDY    86  70  58 SE9G20    29.92R HX  90
*AUSTIN/EXEC   PTCLDY    84  72  65 SE8       29.92R
*LAGO VISTA    CLEAR     85  69  57 SE7       29.94R
SAN MARCOS     CLEAR     84  72  65 S12G20    29.93R
NEW BRAUNFELS  MOCLDY    85  72  65 SE15      29.91R HX  91
RANDOLPH AFB   CLEAR     83  72  69 SE10      29.92R
PT SAN ANTONIO CLEAR     85  71  62 SE18      29.90R HX  91
SAN ANTONIO    PTCLDY    85  71  63 SE14      29.92R HX  90
STINSON FIELD  CLEAR     85  72  65 SE13      29.89R HX  91
*PLEASANTON    CLEAR     85  71  63 SE9       29.90R HX  90
*LA GRANGE     CLEAR     83  73  70 SE6       29.90R
*GIDDINGS      CLEAR     81  71  71 SE3       29.96R
*GONZALES      PTCLDY    83  76  78 SE8       29.91R HX  91
$$

TXZ163>164-176>182-195>201-210>213-226-227-235-050300-
SOUTHEAST TEXAS

CITY           SKY/WX    TMP DP  RH WIND       PRES   REMARKS
COLLEGE STN    CLOUDY    83  72  69 S12       29.93R
*BRYAN         CLOUDY    82  73  72 SE8       29.94R
*CALDWELL      PTCLDY    81  75  83 SE7       29.95R
*CROCKETT      CLEAR     84  72  65 SE5       29.97R
*BRENHAM       CLEAR     83  76  79 SE5       29.93R HX  90
HUNTSVILLE     MOCLDY    83  74  74 S6        29.94R
CONROE         PTCLDY    80  74  81 SE3       29.94R
HOUSTON BUSH   PTCLDY    81  75  82 S5        29.94R
HOUSTON HOBBY  PTCLDY    81  75  82 S5        29.93S
*HOUSTON SW AP CLEAR     79  75  89 CALM      29.95R
PEARLAND       CLEAR     82  75  79 S3        29.95R
HOUSTON HOOKS  CLEAR     81  75  82 CALM      29.94R
ELLINGTON FLD  PTCLDY    82  73  74 SE5       29.95S
SUGAR LAND     CLEAR     82  76  81 S7        29.93R
*HOUSTON EXEC  MOCLDY    81  75  83 S7        29.94S
*CLEVELAND MUN CLEAR     78  77  95 CALM      29.95S
*WHARTON       PTCLDY    80  76  89 SE7       29.94R
*COLUMBUS      FAIR      80  76  87 SE3       29.92R
*EAGLE LAKE    CLEAR     80  77  91 SE5       29.93R
$$

TXZ214>216-236>238-050300-
THE UPPER TEXAS COAST

CITY           SKY/WX    TMP DP  RH WIND       PRES   REMARKS
*ORANGE        PTCLDY   N/A N/A N/A CALM      29.97R
PORT ARTHUR    PTCLDY    79  77  94 S3        29.95R
GALVESTON      PTCLDY    84  77  79 S9        29.96R HX  94
ANGLETON       PTCLDY    81  77  88 CALM      29.94R
*BAY CITY      PTCLDY    81  79  95 CALM      29.93R HX  90
PALACIOS       PTCLDY    83  77  82 SE8       29.92S HX  92
$$

TXZ229>234-239>247-050300-
TEXAS COASTAL BEND AND RIO GRANDE PLAINS

CITY           SKY/WX    TMP DP  RH WIND       PRES   REMARKS
VICTORIA       PTCLDY    82  78  88 SE9       29.93R HX  91
*BEEVILLE      PTCLDY    82  77  87 SE6       29.91R
ROCKPORT       CLEAR     84  77  79 SE13      29.90R HX  94
*PORT ARANSAS  PTCLDY    83  79  86 SE13      29.90S HX  94
*PORT LAVACA   NOT AVBL
*INGLESIDE     CLEAR     84  78  82 SE12G17   29.90R HX  94
CORPUS CHRISTI PTCLDY    84  77  79 SE17G25   29.89R HX  94
CORPUS NAS     CLEAR     83  78  85 SE14      29.89S HX  93
*ROBSTOWN      CLEAR     83  78  85 SE12      29.89R HX  94
ALICE          CLEAR     83  77  82 SE12      29.89R HX  92
KINGSVILLE NAS CLEAR     82  80  94 SE9       29.88R HX  94
COTULLA        PTCLDY    89  71  55 SE10      29.86R HX  95
*FAITH RANCH     N/A     93  68  43 E14G21    29.84R HX  97
LAREDO         CLEAR     89  73  59 E18       29.86R HX  96
$$

TXZ248>255-050300-
DEEP SOUTH TEXAS

CITY           SKY/WX    TMP DP  RH WIND       PRES   REMARKS
BROWNSVILLE    CLEAR     83  77  82 SE8       29.89R HX  92
PORT ISABEL    CLEAR     85  79  82 SE12      29.88R HX  98
*SOUTH PADRE     N/A     84  81  89 SE12      29.89R HX  98
HARLINGEN      CLEAR     83  77  82 SE8       29.88R HX  92
*HEBBRONVILLE  NOT AVBL
MCALLEN        CLEAR     86  73  65 SE10      29.87R HX  93
*WESLACO       CLEAR     85  73  67 SE7       29.86S HX  91
FALFURRIAS     CLEAR     84  76  77 SE12      29.87R HX  93
EDINBURG       CLEAR     86  73  65 SE9       29.87R HX  93
*ZAPATA        CLEAR     89  68  50 SE13G21   29.84R HX  92
$$

TXZ213>215-236>238-242>244-246-247-251-254-255-050300-
CMAN STATIONS

STATION/POSITION TIME  TEMP    WIND        PRES    WAVE
                       AIR SEA DIR/SP/G            HT/PER
                 (UTC) (F)     (DEG/KT/KT) (MB)    (FT/S)
SABINE PASS      0100   83 85  200/  5/  8 1014.1
SEA RIM ST PARK  0100   84     190/  8/ 10 1014.4
NORTH JETTY/GLS  0100   84 84  210/ 10/ 12   N/A
EAGLE POINT      0100   84 82  190/ 10/ 10 1013.7
MORGANS POINT    0100   84 81  180/  5/  8 1013.7
MISSION/ARANSAS  0100   85                 1013.0
PORT O`CONNOR    0100          140/ 12/ 13   N/A
PORT ARANSAS     0100   84 86  120/ 15/ 16 1013.1
MALAQUITE BEACH  0100   85 87  120/ 16/ 18 1012.1
BAFFIN BAY       0100   85     140/ 14/ 18 1012.0
PORT ISABEL      0100   85 85  140/ 10/ 14 1011.7
$$

GMZ080-GMZ150>470-050300-
OFFSHORE BUOY REPORTS

STATION/POSITION TIME  TEMP    WIND        PRES    WAVE
                       AIR SEA DIR/SP/G            HT/PER
                 (UTC) (F)     (DEG/KT/KT) (MB)    (FT/S)
20 E GALVESTON   0150   85 86  180/  8/ 10 1014.1    2/ 6
90 E PT ARANSAS  0150   85 85  150/ 10/ 12 1013.6    3/ 6
35 NE PT MANSFLD 0050   85 85  150/ 12/ 12 1012.0    3/ 5
200 E PT ISABEL  0150   86 85  130/ 12/ 12 1013.7    2/ 6
$$



USA.gov is the U.S. government's official web portal to all federal, state and local government web resources and services.